TimeCST,TemperatureF,Dew PointF,Humidity,Sea Level PressureIn,VisibilityMPH,Wind Direction,Wind SpeedMPH,Gust SpeedMPH,PrecipitationIn,Events,Conditions,WindDirDegrees,DateUTC
12:15 AM,10.4,6.8,85,30.00,10.0,WNW,13.8,-,N/A,,Clear,300,2012-12-31 06:15:00
12:35 AM,10.4,5.0,79,30.00,10.0,NW,16.1,20.7,N/A,,Clear,310,2012-12-31 06:35:00
12:55 AM,10.4,5.0,79,30.00,10.0,NW,12.7,-,N/A,,Mostly Cloudy,310,2012-12-31 06:55:00
1:15 AM,12.2,5.0,73,30.02,10.0,WNW,10.4,18.4,N/A,,Overcast,300,2012-12-31 07:15:00
1:35 AM,12.2,5.0,73,30.02,10.0,NW,13.8,18.4,N/A,,Overcast,310,2012-12-31 07:35:00
1:55 AM,12.2,6.8,79,30.03,10.0,WNW,10.4,-,N/A,,Overcast,300,2012-12-31 07:55:00
2:15 AM,12.2,6.8,79,30.05,10.0,WNW,10.4,17.3,N/A,Snow,Light Snow,300,2012-12-31 08:15:00
2:35 AM,12.2,8.6,85,30.05,7.0,WNW,16.1,-,N/A,Snow,Light Snow,300,2012-12-31 08:35:00
2:55 AM,12.2,8.6,85,30.06,7.0,WNW,16.1,20.7,N/A,Snow,Light Snow,300,2012-12-31 08:55:00
3:15 AM,12.2,6.8,79,30.06,10.0,WNW,17.3,21.9,N/A,Snow,Light Snow,290,2012-12-31 09:15:00
3:35 AM,12.2,6.8,79,30.08,10.0,West,15.0,20.7,N/A,,Overcast,280,2012-12-31 09:35:00
3:55 AM,12.2,3.2,67,30.09,10.0,WNW,13.8,23.0,N/A,,Mostly Cloudy,290,2012-12-31 09:55:00
4:15 AM,10.4,3.2,73,30.10,10.0,WNW,11.5,-,N/A,,Scattered Clouds,290,2012-12-31 10:15:00
4:35 AM,8.6,-0.4,67,30.09,10.0,West,11.5,-,N/A,,Clear,280,2012-12-31 10:35:00
4:55 AM,6.8,-0.4,72,30.11,10.0,WNW,12.7,-,N/A,,Clear,290,2012-12-31 10:55:00
5:15 AM,5.0,-4.0,66,30.11,10.0,West,10.4,-,N/A,,Clear,280,2012-12-31 11:15:00
5:35 AM,3.2,-4.0,72,30.11,10.0,West,10.4,-,N/A,,Clear,280,2012-12-31 11:35:00
6:35 AM,1.4,-5.8,72,30.13,10.0,WNW,11.5,-,N/A,,Clear,290,2012-12-31 12:35:00
6:55 AM,1.4,-5.8,72,30.14,10.0,WNW,11.5,-,N/A,,Clear,300,2012-12-31 12:55:00
7:35 AM,-0.4,-5.8,78,30.14,10.0,NW,6.9,-,N/A,,Clear,310,2012-12-31 13:35:00
7:55 AM,-0.4,-7.6,72,30.14,10.0,NW,8.1,-,N/A,,Clear,310,2012-12-31 13:55:00
8:15 AM,-2.2,-7.6,78,30.15,10.0,NW,8.1,-,N/A,,Clear,310,2012-12-31 14:15:00
8:35 AM,-2.2,-7.6,78,30.16,10.0,WNW,4.6,-,N/A,,Clear,300,2012-12-31 14:35:00
8:55 AM,-4.0,-7.6,85,30.17,10.0,WNW,5.8,-,N/A,,Clear,300,2012-12-31 14:55:00
9:15 AM,-4.0,-7.6,85,30.18,10.0,WNW,8.1,-,N/A,,Clear,300,2012-12-31 15:15:00
9:35 AM,-2.2,-7.6,78,30.18,10.0,WNW,5.8,-,N/A,,Clear,290,2012-12-31 15:35:00
9:55 AM,-2.2,-7.6,78,30.20,10.0,WNW,8.1,-,N/A,,Clear,290,2012-12-31 15:55:00
10:15 AM,-0.4,-7.6,72,30.20,10.0,WNW,6.9,-,N/A,,Clear,290,2012-12-31 16:15:00
10:35 AM,-0.4,-7.6,72,30.21,10.0,WNW,5.8,-,N/A,,Clear,290,2012-12-31 16:35:00
10:55 AM,-0.4,-7.6,72,30.20,10.0,WNW,6.9,-,N/A,,Clear,290,2012-12-31 16:55:00
11:15 AM,1.4,-5.8,72,30.21,10.0,WNW,5.8,-,N/A,,Clear,290,2012-12-31 17:15:00
11:35 AM,1.4,-5.8,72,30.19,10.0,WNW,11.5,-,N/A,,Clear,300,2012-12-31 17:35:00
11:55 AM,3.2,-5.8,66,30.19,10.0,NW,9.2,-,N/A,,Clear,310,2012-12-31 17:55:00
12:15 PM,3.2,-5.8,66,30.17,10.0,NW,9.2,-,N/A,,Clear,310,2012-12-31 18:15:00
12:35 PM,3.2,-5.8,66,30.17,10.0,WNW,10.4,-,N/A,,Clear,300,2012-12-31 18:35:00
12:55 PM,3.2,-5.8,66,30.16,10.0,NW,8.1,-,N/A,,Clear,310,2012-12-31 18:55:00
1:15 PM,3.2,-5.8,66,30.16,10.0,NW,9.2,-,N/A,,Clear,310,2012-12-31 19:15:00
1:35 PM,3.2,-5.8,66,30.16,10.0,NW,9.2,-,N/A,,Clear,310,2012-12-31 19:35:00
1:55 PM,5.0,-5.8,61,30.16,10.0,NW,9.2,-,N/A,,Clear,310,2012-12-31 19:55:00
2:15 PM,5.0,-5.8,61,30.16,10.0,NW,9.2,-,N/A,,Clear,320,2012-12-31 20:15:00
2:35 PM,5.0,-4.0,66,30.17,10.0,NW,6.9,-,N/A,,Clear,320,2012-12-31 20:35:00
2:55 PM,5.0,-4.0,66,30.17,10.0,NW,6.9,-,N/A,,Clear,320,2012-12-31 20:55:00
3:15 PM,5.0,-5.8,61,30.18,10.0,NW,5.8,-,N/A,,Clear,310,2012-12-31 21:15:00
3:35 PM,3.2,-5.8,66,30.18,10.0,NW,5.8,-,N/A,,Clear,320,2012-12-31 21:35:00
3:55 PM,3.2,-5.8,66,30.19,10.0,WNW,3.5,-,N/A,,Clear,300,2012-12-31 21:55:00
4:15 PM,3.2,-5.8,66,30.19,10.0,NW,3.5,-,N/A,,Clear,310,2012-12-31 22:15:00
4:35 PM,3.2,-5.8,66,30.20,10.0,NW,3.5,-,N/A,,Clear,320,2012-12-31 22:35:00
4:55 PM,1.4,-7.6,66,30.20,10.0,NW,3.5,-,N/A,,Clear,320,2012-12-31 22:55:00
5:15 PM,-0.4,-7.6,72,30.20,10.0,Calm,Calm,-,N/A,,Clear,0,2012-12-31 23:15:00
5:35 PM,-0.4,-7.6,72,30.20,10.0,Calm,Calm,-,N/A,,Clear,0,2012-12-31 23:35:00
5:55 PM,-4.0,-7.6,85,30.20,10.0,Calm,Calm,-,N/A,,Clear,0,2012-12-31 23:55:00
6:15 PM,-0.4,-5.8,78,30.20,10.0,Calm,Calm,-,N/A,,Clear,0,2013-01-01 00:15:00
6:35 PM,-5.8,-9.4,84,30.20,10.0,Calm,Calm,-,N/A,,Clear,0,2013-01-01 00:35:00
6:55 PM,-7.6,-11.2,84,30.20,10.0,Calm,Calm,-,N/A,,Clear,0,2013-01-01 00:55:00
7:15 PM,-9.4,-13.0,84,30.20,7.0,Calm,Calm,-,N/A,,Clear,0,2013-01-01 01:15:00
7:35 PM,-9.4,-13.0,84,30.21,10.0,Calm,Calm,-,N/A,,Clear,0,2013-01-01 01:35:00
7:55 PM,-5.8,-7.6,92,30.20,10.0,NW,3.5,-,N/A,,Clear,320,2013-01-01 01:55:00
8:35 PM,-11.2,-14.8,84,30.20,10.0,Calm,Calm,-,N/A,,Clear,0,2013-01-01 02:35:00
8:55 PM,-9.4,-13.0,84,30.20,10.0,Calm,Calm,-,N/A,,Clear,0,2013-01-01 02:55:00
9:15 PM,-9.4,-14.8,77,30.20,10.0,Calm,Calm,-,N/A,,Clear,0,2013-01-01 03:15:00
9:35 PM,-14.8,-18.4,84,30.20,10.0,Calm,Calm,-,N/A,,Clear,0,2013-01-01 03:35:00
9:55 PM,-13.0,-16.6,84,30.20,10.0,WNW,3.5,-,N/A,,Clear,300,2013-01-01 03:55:00
10:15 PM,-13.0,-16.6,84,30.20,10.0,Calm,Calm,-,N/A,,Clear,0,2013-01-01 04:15:00
10:35 PM,-13.0,-16.6,84,30.21,10.0,Calm,Calm,-,N/A,,Clear,0,2013-01-01 04:35:00
10:55 PM,-13.0,-16.6,84,30.21,10.0,NNW,3.5,-,N/A,,Clear,330,2013-01-01 04:55:00
11:15 PM,-14.8,-18.4,84,30.22,10.0,Calm,Calm,-,N/A,,Clear,0,2013-01-01 05:15:00
11:35 PM,-16.6,-20.2,84,30.22,10.0,Calm,Calm,-,N/A,,Clear,0,2013-01-01 05:35:00
11:55 PM,-16.6,-22.0,76,30.21,10.0,Calm,Calm,-,N/A,,Clear,0,2013-01-01 05:55:00